| time (UTC) | temp F | wind direction | speed knots | gust knots | rain 1hr in | rain 24hr in | rain mn in | humidity % | barometer mb |
| 20260831025617 | 75 | 158 | 7.8 | 11.3 | 0.00 | 0.00 | 0.00 | 92 | 1008.3 |
| 20260831024518 | 75 | 158 | 7.8 | 11.3 | 0.00 | 0.00 | 0.00 | 91 | 1008.4 |
| 20260831023516 | 76 | 158 | 7.8 | 11.3 | 0.00 | 0.00 | 0.00 | 91 | 1008.4 |
| 20260831022537 | 76 | 158 | 7.0 | 13.0 | 0.00 | 0.00 | 0.00 | 91 | 1008.3 |
| 20260831021517 | 76 | 158 | 7.0 | 12.2 | 0.00 | 0.00 | 0.00 | 90 | 1008.3 |
| 20260831020558 | 76 | 158 | 6.1 | 12.2 | 0.00 | 0.00 | 0.00 | 90 | 1008.1 |
| 20260831015518 | 77 | 158 | 7.0 | 10.4 | 0.00 | 0.00 | 0.00 | 89 | 1008.1 |
| 20260831014516 | 77 | 158 | 6.1 | 10.4 | 0.00 | 0.00 | 0.00 | 89 | 1008.2 |
| 20260831013517 | 77 | 158 | 6.1 | 10.4 | 0.00 | 0.00 | 0.00 | 88 | 1008.1 |
| 20260831012517 | 78 | 158 | 6.1 | 9.6 | 0.00 | 0.00 | 0.00 | 87 | 1007.8 |
| 20260831011517 | 78 | 158 | 6.1 | 9.6 | 0.00 | 0.00 | 0.00 | 87 | 1007.9 |
| 20260831010517 | 78 | 158 | 6.1 | 9.6 | 0.00 | 0.00 | 0.00 | 86 | 1007.9 |
| 20260831005517 | 79 | 158 | 6.1 | 8.7 | 0.00 | 0.00 | 0.00 | 86 | 1007.9 |
| 20260831004516 | 79 | 158 | 6.1 | 9.6 | 0.00 | 0.00 | 0.00 | 85 | 1007.8 |
| 20260831003537 | 80 | 158 | 6.1 | 9.6 | 0.00 | 0.00 | 0.00 | 83 | 1007.8 |
| 20260831002517 | 81 | 180 | 8.7 | 13.9 | 0.00 | 0.00 | 0.00 | 81 | 1007.9 |
| 20260831001521 | 82 | 158 | 8.7 | 13.9 | 0.00 | 0.00 | 0.00 | 80 | 1007.9 |
| 20260831000517 | 82 | 180 | 8.7 | 13.0 | 0.00 | 0.00 | 0.00 | 80 | 1008.1 |
| 20260830235517 | 82 | 158 | 5.2 | 8.7 | 0.00 | 0.00 | 0.00 | 83 | 1007.6 |
| 20260830234517 | 82 | 158 | 6.1 | 8.7 | 0.00 | 0.00 | 0.00 | 83 | 1007.7 |
| 20260830233516 | 82 | 158 | 7.0 | 10.4 | 0.00 | 0.00 | 0.00 | 82 | 1007.6 |
| 20260830232516 | 82 | 158 | 5.2 | 8.7 | 0.00 | 0.00 | 0.00 | 82 | 1007.4 |
| 20260830231517 | 83 | 158 | 6.1 | 13.9 | 0.00 | 0.00 | 0.00 | 81 | 1007.5 |
| 20260830230517 | 83 | 158 | 7.0 | 11.3 | 0.00 | 0.00 | 0.00 | 79 | 1007.5 |
| 20260830225517 | 84 | 158 | 7.0 | 11.3 | 0.00 | 0.00 | 0.00 | 78 | 1007.4 |
| 20260830224516 | 85 | 158 | 7.8 | 13.0 | 0.00 | 0.00 | 0.00 | 77 | 1007.3 |
| 20260830223516 | 84 | 158 | 7.8 | 13.0 | 0.00 | 0.00 | 0.00 | 78 | 1007.3 |
| 20260830222516 | 84 | 158 | 7.8 | 11.3 | 0.00 | 0.00 | 0.00 | 78 | 1007.4 |
| 20260830221537 | 84 | 158 | 7.0 | 11.3 | 0.00 | 0.00 | 0.00 | 77 | 1007.5 |
| 20260830220516 | 85 | 158 | 7.0 | 12.2 | 0.00 | 0.00 | 0.00 | 76 | 1007.3 |
| 20260830215536 | 86 | 158 | 8.7 | 13.0 | 0.00 | 0.00 | 0.00 | 72 | 1007.2 |
| 20260830214517 | 87 | 158 | 9.6 | 14.8 | 0.00 | 0.00 | 0.00 | 71 | 1007.4 |
| 20260830213536 | 87 | 180 | 9.6 | 17.4 | 0.00 | 0.00 | 0.00 | 71 | 1007.5 |
| 20260830212536 | 87 | 158 | 10.4 | 15.6 | 0.00 | 0.00 | 0.00 | 71 | 1007.7 |
| 20260830211517 | 88 | 158 | 10.4 | 16.5 | 0.00 | 0.00 | 0.00 | 71 | 1007.7 |
| 20260830210516 | 88 | 158 | 7.8 | 12.2 | 0.00 | 0.00 | 0.00 | 70 | 1007.6 |
| 20260830205516 | 88 | 158 | 8.7 | 13.0 | 0.00 | 0.00 | 0.00 | 70 | 1007.7 |
| 20260830204556 | 89 | 158 | 7.0 | 11.3 | 0.00 | 0.00 | 0.00 | 68 | 1007.7 |
| 20260830203537 | 89 | 158 | 7.8 | 10.4 | 0.00 | 0.00 | 0.00 | 66 | 1007.9 |
| 20260830202516 | 89 | 180 | 7.8 | 13.0 | 0.00 | 0.00 | 0.00 | 68 | 1007.7 |
| 20260830201516 | 89 | 158 | 6.1 | 9.6 | 0.00 | 0.00 | 0.00 | 68 | 1007.7 |
| 20260830200516 | 89 | 158 | 8.7 | 13.0 | 0.00 | 0.00 | 0.00 | 67 | 1007.8 |
| 20260830195517 | 89 | 135 | 7.0 | 11.3 | 0.00 | 0.00 | 0.00 | 68 | 1007.8 |
| 20260830194517 | 88 | 135 | 5.2 | 9.6 | 0.00 | 0.00 | 0.00 | 72 | 1007.9 |
| 20260830193516 | 88 | 158 | 7.0 | 11.3 | 0.00 | 0.00 | 0.00 | 72 | 1008.1 |
| 20260830192516 | 88 | 135 | 6.1 | 9.6 | 0.00 | 0.00 | 0.00 | 74 | 1008.1 |
| 20260830191516 | 87 | 158 | 7.0 | 11.3 | 0.00 | 0.00 | 0.00 | 73 | 1007.9 |
| 20260830190517 | 87 | 135 | 6.1 | 9.6 | 0.00 | 0.00 | 0.00 | 73 | 1007.9 |
| 20260830185516 | 87 | 135 | 6.1 | 10.4 | 0.00 | 0.00 | 0.00 | 72 | 1008.0 |
| 20260830184516 | 86 | 135 | 7.0 | 9.6 | 0.00 | 0.00 | 0.00 | 73 | 1008.2 |
| 20260830183515 | 86 | 135 | 3.5 | 7.8 | 0.00 | 0.00 | 0.00 | 75 | 1008.2 |
| 20260830182516 | 86 | 158 | 6.1 | 8.7 | 0.00 | 0.00 | 0.00 | 74 | 1008.3 |
| 20260830181515 | 86 | 135 | 4.3 | 7.8 | 0.00 | 0.00 | 0.00 | 74 | 1008.4 |
| 20260830180536 | 85 | 113 | 4.3 | 8.7 | 0.00 | 0.00 | 0.00 | 77 | 1008.5 |
| 20260830175536 | 85 | 135 | 4.3 | 7.8 | 0.00 | 0.00 | 0.00 | 76 | 1008.5 |
| 20260830174516 | 85 | 135 | 3.5 | 8.7 | 0.00 | 0.00 | 0.00 | 76 | 1008.4 |
| 20260830173515 | 85 | 135 | 3.5 | 7.0 | 0.00 | 0.00 | 0.00 | 79 | 1008.6 |
| 20260830172516 | 84 | 135 | 5.2 | 9.6 | 0.00 | 0.00 | 0.00 | 77 | 1008.9 |
| 20260830171515 | 83 | 68 | 4.3 | 7.8 | 0.00 | 0.00 | 0.00 | 79 | 1008.6 |
| 20260830170516 | 83 | 135 | 5.2 | 8.7 | 0.00 | 0.00 | 0.00 | 79 | 1009.1 |
| 20260830165515 | 83 | 135 | 6.1 | 10.4 | 0.00 | 0.00 | 0.00 | 81 | 1009.3 |
| 20260830164516 | 83 | 158 | 7.0 | 10.4 | 0.00 | 0.00 | 0.00 | 80 | 1009.1 |
| 20260830163515 | 83 | 113 | 6.1 | 9.6 | 0.00 | 0.00 | 0.00 | 81 | 1009.3 |
| 20260830162516 | 82 | 113 | 4.3 | 7.8 | 0.00 | 0.00 | 0.00 | 83 | 1009.5 |
| 20260830161518 | 81 | 113 | 4.3 | 7.8 | 0.00 | 0.00 | 0.00 | 83 | 1009.2 |
| 20260830160517 | 80 | 90 | 3.5 | 7.8 | 0.00 | 0.00 | 0.00 | 85 | 1008.9 |
| 20260830155523 | 79 | 90 | 2.6 | 6.1 | 0.00 | 0.00 | 0.00 | 86 | 1008.9 |
| 20260830154537 | 79 | 113 | 2.6 | 5.2 | 0.00 | 0.00 | 0.00 | 86 | 1008.8 |
| 20260830153517 | 79 | 135 | 3.5 | 7.0 | 0.00 | 0.00 | 0.00 | 86 | 1008.7 |
| 20260830152518 | 78 | 158 | 2.6 | 3.5 | 0.00 | 0.00 | 0.00 | 87 | 1008.7 |
| 20260830151517 | 78 | 135 | 2.6 | 4.3 | 0.00 | 0.00 | 0.00 | 88 | 1008.6 |
| 20260830150518 | 77 | 135 | 3.5 | 7.0 | 0.00 | 0.00 | 0.00 | 88 | 1008.8 |
| 20260830145517 | 76 | 113 | 3.5 | 6.1 | 0.00 | 0.00 | 0.00 | 89 | 1008.5 |
| 20260830144517 | 76 | 113 | 4.3 | 7.8 | 0.00 | 0.00 | 0.00 | 90 | 1008.6 |
| 20260830143518 | 75 | 135 | 5.2 | 8.7 | 0.00 | 0.00 | 0.00 | 92 | 1008.6 |
| 20260830142517 | 74 | 113 | 2.6 | 6.1 | 0.00 | 0.00 | 0.00 | 95 | 1008.5 |
| 20260830141517 | 73 | 113 | 4.3 | 7.0 | 0.00 | 0.00 | 0.00 | 95 | 1008.4 |
| 20260830140538 | 73 | 90 | 3.5 | 7.0 | 0.00 | 0.00 | 0.00 | 96 | 1008.4 |
| 20260830135518 | 72 | 68 | 4.3 | 7.0 | 0.00 | 0.00 | 0.00 | 97 | 1008.3 |
| 20260830134517 | 72 | 68 | 3.5 | 7.0 | 0.00 | 0.00 | 0.00 | 98 | 1008.4 |
| 20260830133518 | 71 | 90 | 2.6 | 6.1 | 0.00 | 0.00 | 0.00 | 98 | 1008.4 |
| 20260830132518 | 70 | 113 | 2.6 | 6.1 | 0.00 | 0.00 | 0.00 | 98 | 1008.5 |
| 20260830131517 | 70 | 90 | 2.6 | 6.1 | 0.00 | 0.00 | 0.00 | 99 | 1008.5 |
| 20260830130517 | 69 | 68 | 3.5 | 6.1 | 0.00 | 0.00 | 0.00 | 99 | 1008.4 |
| 20260830125518 | 69 | 68 | 3.5 | 6.1 | 0.00 | 0.00 | 0.00 | 99 | 1008.7 |
| 20260830124518 | 69 | 113 | 2.6 | 3.5 | 0.00 | 0.00 | 0.00 | 99 | 1008.5 |
| 20260830123517 | 68 | 0.0 | 0.0 | 0.00 | 0.00 | 0.00 | 99 | 1008.6 | |
| 20260830122517 | 68 | 113 | 0.9 | 2.6 | 0.00 | 0.00 | 0.00 | 99 | 1008.4 |
| 20260830121517 | 68 | 0.0 | 0.9 | 0.00 | 0.00 | 0.00 | 99 | 1008.6 | |
| 20260830120517 | 68 | 0.0 | 0.0 | 0.00 | 0.00 | 0.00 | 99 | 1008.7 | |
| 20260830115518 | 68 | 0.0 | 0.0 | 0.00 | 0.00 | 0.00 | 99 | 1008.5 | |
| 20260830114517 | 67 | 113 | 1.7 | 3.5 | 0.00 | 0.00 | 0.00 | 99 | 1008.1 |
| 20260830113517 | 67 | 113 | 0.9 | 1.7 | 0.00 | 0.00 | 0.00 | 99 | 1008.2 |
| 20260830112517 | 67 | 113 | 0.9 | 2.6 | 0.00 | 0.00 | 0.00 | 99 | 1008.2 |
| 20260830111537 | 67 | 113 | 1.7 | 2.6 | 0.00 | 0.00 | 0.00 | 99 | 1008.3 |
| 20260830110517 | 67 | 113 | 1.7 | 2.6 | 0.00 | 0.00 | 0.00 | 99 | 1008.4 |
| 20260830105516 | 67 | 113 | 0.9 | 1.7 | 0.00 | 0.00 | 0.00 | 98 | 1008.5 |
| 20260830104537 | 67 | 0.0 | 0.0 | 0.00 | 0.00 | 0.00 | 98 | 1008.7 | |
| 20260830103517 | 67 | 113 | 0.9 | 1.7 | 0.00 | 0.00 | 0.00 | 99 | 1008.5 |
| 20260830102517 | 67 | 113 | 0.9 | 2.6 | 0.00 | 0.00 | 0.00 | 99 | 1008.2 |
| 20260830101517 | 68 | 113 | 0.9 | 3.5 | 0.00 | 0.01 | 0.00 | 98 | 1008.7 |
| 20260830100516 | 68 | 113 | 0.9 | 3.5 | 0.00 | 0.02 | 0.00 | 98 | 1008.8 |
| 20260830095517 | 68 | 113 | 2.6 | 3.5 | 0.00 | 0.05 | 0.00 | 98 | 1008.8 |
| 20260830094517 | 68 | 135 | 1.7 | 2.6 | 0.00 | 0.09 | 0.00 | 98 | 1008.9 |
| 20260830093516 | 68 | 135 | 1.7 | 2.6 | 0.00 | 0.14 | 0.00 | 98 | 1009.2 |
| 20260830092536 | 68 | 135 | 1.7 | 3.5 | 0.00 | 0.18 | 0.00 | 99 | 1009.0 |
| 20260830091516 | 68 | 135 | 1.7 | 3.5 | 0.00 | 0.19 | 0.00 | 98 | 1008.8 |
| 20260830090517 | 67 | 135 | 0.9 | 1.7 | 0.00 | 0.20 | 0.00 | 98 | 1008.8 |
| 20260830085516 | 68 | 135 | 0.9 | 1.7 | 0.00 | 0.20 | 0.00 | 98 | 1008.7 |
| 20260830084516 | 68 | 135 | 1.7 | 2.6 | 0.00 | 0.20 | 0.00 | 98 | 1008.6 |
| 20260830083516 | 68 | 135 | 1.7 | 1.7 | 0.00 | 0.21 | 0.00 | 98 | 1008.7 |
| 20260830082517 | 68 | 135 | 1.7 | 2.6 | 0.00 | 0.22 | 0.00 | 98 | 1008.7 |
| 20260830081517 | 68 | 135 | 1.7 | 2.6 | 0.00 | 0.23 | 0.00 | 98 | 1008.6 |
| 20260830080516 | 68 | 135 | 0.9 | 1.7 | 0.00 | 0.24 | 0.00 | 98 | 1008.9 |
| 20260830075516 | 68 | 135 | 0.9 | 2.6 | 0.00 | 0.24 | 0.00 | 98 | 1009.0 |
| 20260830074516 | 68 | 135 | 1.7 | 4.3 | 0.00 | 0.26 | 0.00 | 98 | 1009.0 |
| 20260830073516 | 68 | 135 | 1.7 | 3.5 | 0.00 | 0.26 | 0.00 | 98 | 1009.0 |
| 20260830072517 | 68 | 135 | 1.7 | 2.6 | 0.00 | 0.28 | 0.00 | 98 | 1009.1 |
| 20260830071516 | 68 | 135 | 1.7 | 2.6 | 0.00 | 0.32 | 0.00 | 98 | 1009.0 |
| 20260830070516 | 68 | 135 | 1.7 | 2.6 | 0.00 | 0.39 | 0.00 | 98 | 1009.3 |
| 20260830065516 | 68 | 135 | 1.7 | 3.5 | 0.00 | 0.44 | 0.00 | 98 | 1009.4 |
| 20260830064516 | 69 | 135 | 1.7 | 3.5 | 0.00 | 0.48 | 0.00 | 98 | 1009.2 |
| 20260830063516 | 69 | 135 | 2.6 | 6.1 | 0.00 | 0.51 | 0.00 | 97 | 1009.3 |
| 20260830062536 | 69 | 135 | 2.6 | 4.3 | 0.00 | 0.51 | 0.00 | 97 | 1009.2 |
| 20260830061537 | 69 | 135 | 2.6 | 6.1 | 0.00 | 0.51 | 0.00 | 97 | 1009.2 |
| 20260830060516 | 69 | 135 | 3.5 | 6.1 | 0.00 | 0.51 | 0.00 | 97 | 1009.3 |
| 20260830055516 | 69 | 135 | 3.5 | 6.1 | 0.00 | 0.51 | 0.00 | 97 | 1009.3 |
| 20260830054556 | 69 | 135 | 2.6 | 6.1 | 0.00 | 0.51 | 0.00 | 97 | 1009.6 |
| 20260830053517 | 69 | 135 | 2.6 | 6.1 | 0.00 | 0.51 | 0.00 | 97 | 1009.8 |
| 20260830052516 | 69 | 135 | 2.6 | 6.1 | 0.00 | 0.51 | 0.00 | 97 | 1009.9 |
| 20260830051516 | 69 | 135 | 3.5 | 7.0 | 0.00 | 0.51 | 0.00 | 96 | 1009.9 |
| 20260830050516 | 70 | 135 | 4.3 | 7.8 | 0.00 | 0.51 | 0.00 | 96 | 1009.8 |
| 20260830045518 | 70 | 135 | 3.5 | 7.8 | 0.00 | 0.51 | 0.51 | 96 | 1009.8 |
| 20260830044517 | 70 | 135 | 4.3 | 7.0 | 0.00 | 0.51 | 0.51 | 96 | 1009.7 |
| 20260830043517 | 70 | 135 | 3.5 | 6.1 | 0.00 | 0.51 | 0.51 | 96 | 1009.8 |
| 20260830042537 | 70 | 135 | 3.5 | 6.1 | 0.00 | 0.51 | 0.51 | 96 | 1009.9 |
| 20260830041537 | 70 | 135 | 3.5 | 7.8 | 0.00 | 0.51 | 0.51 | 96 | 1009.9 |
| 20260830040517 | 71 | 135 | 3.5 | 7.8 | 0.00 | 0.51 | 0.51 | 95 | 1010.0 |
| 20260830035517 | 71 | 135 | 3.5 | 7.8 | 0.00 | 0.51 | 0.51 | 95 | 1009.7 |
| 20260830034517 | 71 | 135 | 4.3 | 7.8 | 0.00 | 0.51 | 0.51 | 95 | 1009.7 |
| 20260830033538 | 71 | 113 | 3.5 | 6.1 | 0.00 | 0.51 | 0.51 | 95 | 1009.8 |
| 20260830032517 | 71 | 135 | 4.3 | 7.0 | 0.00 | 0.51 | 0.51 | 95 | 1009.8 |
| 20260830031517 | 72 | 135 | 3.5 | 6.1 | 0.00 | 0.51 | 0.51 | 94 | 1009.8 |
| 20260830030517 | 72 | 135 | 3.5 | 6.1 | 0.00 | 0.51 | 0.51 | 94 | 1009.9 |